Location: Muenchen
(48.1800°N, 11.5800°E)
Time: 14:04:13
(UTC+02:00)

ISS - All Passes

Search period start: 28 May 2015 00:00
Search period end: 07 June 2015 00:00
Orbit: 399 x 404 km, 51.6° (Epoch: 28 May)

Date Brightness Start Highest point End Pass type
(mag) Time Alt. Az. Time Alt. Az. Time Alt. Az.
28 May - 01:21:06 10° WSW 01:24:21 85° NNW 01:27:38 10° ENE visible
28 May - 02:57:51 10° WNW 03:01:00 43° N 03:04:09 10° ENE visible
28 May - 04:34:27 10° WNW 04:37:42 68° NNE 04:40:58 10° ESE visible
28 May - 06:11:04 10° W 06:13:58 29° SW 06:16:50 10° SSE daylight
28 May - 22:53:53 10° SSE 22:55:13 12° SE 22:56:37 10° ESE night (unlit)
29 May - 00:27:55 10° SW 00:31:08 63° SSE 00:34:22 10° ENE visible
29 May - 02:04:29 10° W 02:07:39 47° N 02:10:50 10° ENE visible
29 May - 03:41:12 10° WNW 03:44:24 52° NNE 03:47:37 10° E visible
29 May - 05:17:40 10° WNW 05:20:50 48° SSW 05:24:00 10° SE daylight
29 May - 23:34:55 10° SW 23:37:58 38° SSE 23:41:02 10° ENE visible
30 May - 01:11:06 10° W 01:14:19 57° NNW 01:17:33 10° ENE visible
30 May - 02:47:54 10° WNW 02:51:03 45° N 02:54:13 10° E visible
30 May - 04:24:22 10° WNW 04:27:38 77° SSW 04:30:54 10° ESE visible
30 May - 06:01:36 10° W 06:03:39 15° SW 06:05:38 10° S daylight
30 May - 22:42:13 10° SSW 22:44:51 23° SE 22:47:31 10° E visible
31 May - 00:17:46 10° WSW 00:21:01 78° NNW 00:24:17 10° ENE visible
31 May - 01:54:33 10° WNW 01:57:41 43° N 02:00:50 10° ENE visible
31 May - 03:31:07 10° WNW 03:34:22 73° NNE 03:37:38 10° ESE visible
31 May - 05:07:48 10° W 05:10:35 25° SW 05:13:20 10° SSE daylight
31 May - 21:50:04 10° S 21:51:47 14° SE 21:53:35 10° ESE visible
31 May - 23:24:31 10° WSW 23:27:45 71° SSE 23:31:00 10° ENE visible
01 Jun - 01:01:09 10° W 01:04:18 45° N 01:07:28 10° ENE visible
01 Jun - 02:37:50 10° WNW 02:41:03 55° NNE 02:44:16 10° E visible
01 Jun - 04:14:19 10° WNW 04:17:27 42° SSW 04:20:32 10° SE visible
01 Jun - 22:31:26 10° SW 22:34:32 43° SSE 22:37:39 10° ENE visible
02 Jun - 00:07:44 10° W 00:10:56 54° NNW 00:14:09 10° ENE visible
02 Jun - 01:44:31 10° WNW 01:47:41 46° N 01:50:50 10° E visible
02 Jun - 03:20:58 10° WNW 03:24:13 69° SSW 03:27:28 10° ESE visible
02 Jun - 04:58:26 10° WSW 05:00:11 14° SW 05:01:50 10° SSW daylight
02 Jun - 21:38:37 10° SSW 21:41:23 26° SE 21:44:10 10° E daylight
02 Jun - 23:14:21 10° WSW 23:17:35 71° NNW 23:20:51 10° ENE visible
03 Jun - 00:51:08 10° WNW 00:54:16 43° N 00:57:25 10° ENE visible
03 Jun - 02:27:40 10° WNW 02:30:56 79° NNE 02:34:12 10° ESE visible
03 Jun - 04:04:26 10° W 04:07:05 23° SW 04:09:42 10° SSE visible
03 Jun - 20:46:15 10° S 20:48:16 16° SE 20:50:21 10° E daylight
03 Jun - 22:21:02 10° WSW 22:24:16 79° SSE 22:27:33 10° ENE visible
03 Jun - 23:57:43 10° W 00:00:52 44° N 00:04:01 10° ENE visible
04 Jun - 01:34:22 10° WNW 01:37:36 58° NNE 01:40:49 10° E visible
04 Jun - 03:10:53 10° WNW 03:13:56 37° SSW 03:16:59 10° SE visible
04 Jun - 21:27:53 10° SW 21:31:01 49° SSE 21:34:11 10° ENE daylight
04 Jun - 23:04:16 10° W 23:07:28 51° N 23:10:39 10° ENE visible
05 Jun - 00:41:01 10° WNW 00:44:12 47° N 00:47:22 10° E visible
05 Jun - 02:17:28 10° WNW 02:20:42 62° SSW 02:23:56 10° SE visible
05 Jun - 03:55:18 10° WSW 03:56:37 12° SW 03:57:51 10° SSW visible
05 Jun - 20:34:57 10° SSW 20:37:49 29° SE 20:40:43 10° E daylight
05 Jun - 22:10:50 10° W 22:14:04 66° NNW 22:17:19 10° ENE visible
05 Jun - 23:47:38 10° WNW 23:50:46 43° N 23:53:54 10° ENE visible
06 Jun - 01:24:08 10° WNW 01:27:25 86° NNE 01:30:40 10° ESE visible
06 Jun - 03:01:01 10° W 03:03:31 20° SW 03:05:57 10° S visible
06 Jun - 19:42:24 10° S 19:44:39 18° SE 19:46:58 10° E daylight
06 Jun - 21:17:28 10° WSW 21:20:43 87° SSE 21:23:59 10° ENE daylight
06 Jun - 22:54:11 10° WNW 22:57:19 43° N 23:00:28 10° ENE visible
